Stündliche Wetter Holovnytsya

Heute, 15 Juni, Dienstag

Zeit Temperatur Niederschläge Wind Luftdruck Luftfeuchtigkeit
00:00 +14°C° 0 mm 2 m/S 742 mmHg 96%
01:00 +13°C° 0 mm 2 m/S 742 mmHg 96%
02:00 +13°C° 0 mm 2 m/S 742 mmHg 97%
03:00 +13°C° 0 mm 2 m/S 742 mmHg 97%
04:00 +13°C° 0 mm 2 m/S 742 mmHg 97%
05:00 +13°C° 0 mm 2 m/S 742 mmHg 97%
06:00 +15°C° 0 mm 2 m/S 743 mmHg 91%
07:00 +17°C° 0 mm 2 m/S 743 mmHg 85%
08:00 +19°C° 0 mm 2 m/S 743 mmHg 78%
09:00 +20°C° 0 mm 3 m/S 743 mmHg 74%
10:00 +21°C° 0 mm 3 m/S 743 mmHg 70%
11:00 +24°C° 0 mm 3 m/S 742 mmHg 66%
12:00 +24°C° 0.3 mm 3 m/S 742 mmHg 65%
13:00 +24°C° 0.3 mm 3 m/S 742 mmHg 64%
14:00 +23°C° 0.3 mm 4 m/S 742 mmHg 63%
15:00 +23°C° 0.1 mm 4 m/S 741 mmHg 65%
16:00 +22°C° 0.1 mm 4 m/S 741 mmHg 67%
17:00 +22°C° 0.1 mm 4 m/S 741 mmHg 69%
18:00 +21°C° 0 mm 3 m/S 741 mmHg 73%
19:00 +20°C° 0 mm 3 m/S 741 mmHg 78%
20:00 +18°C° 0 mm 3 m/S 741 mmHg 82%
21:00 +17°C° 0 mm 3 m/S 741 mmHg 85%
22:00 +16°C° 0 mm 3 m/S 741 mmHg 88%
23:00 +16°C° 0 mm 3 m/S 741 mmHg 91%

Morgen, 16 Juni, Mittwoch

Zeit Temperatur Niederschläge Wind Luftdruck Luftfeuchtigkeit
00:00 +14°C° 0 mm 3 m/S 741 mmHg 91%
01:00 +15°C° 0 mm 2 m/S 741 mmHg 91%
02:00 +14°C° 0 mm 2 m/S 741 mmHg 91%
03:00 +14°C° 0 mm 2 m/S 741 mmHg 91%
04:00 +14°C° 0 mm 2 m/S 741 mmHg 91%
05:00 +14°C° 0 mm 2 m/S 742 mmHg 91%
06:00 +16°C° 0 mm 3 m/S 742 mmHg 86%
07:00 +17°C° 0 mm 3 m/S 742 mmHg 81%
08:00 +19°C° 0 mm 3 m/S 742 mmHg 75%
09:00 +21°C° 0 mm 3 m/S 742 mmHg 69%
10:00 +22°C° 0 mm 4 m/S 742 mmHg 63%
11:00 +23°C° 0 mm 4 m/S 743 mmHg 57%
12:00 +25°C° 0 mm 4 m/S 742 mmHg 55%
13:00 +26°C° 0 mm 4 m/S 742 mmHg 54%
14:00 +26°C° 0 mm 4 m/S 742 mmHg 52%
15:00 +25°C° 0.1 mm 4 m/S 742 mmHg 58%
16:00 +25°C° 0.1 mm 4 m/S 742 mmHg 64%
17:00 +23°C° 0.1 mm 4 m/S 742 mmHg 70%
18:00 +22°C° 0.1 mm 4 m/S 743 mmHg 75%
19:00 +20°C° 0.1 mm 3 m/S 743 mmHg 80%
20:00 +19°C° 0.1 mm 3 m/S 743 mmHg 85%
21:00 +18°C° 0 mm 3 m/S 743 mmHg 88%
22:00 +17°C° 0 mm 3 m/S 743 mmHg 91%
23:00 +16°C° 0 mm 3 m/S 744 mmHg 93%

übermorgen, 17 Juni, Donnerstag

Zeit Temperatur Niederschläge Wind Luftdruck Luftfeuchtigkeit
00:00 +16°C° 0 mm 3 m/S 744 mmHg 94%
01:00 +16°C° 0 mm 2 m/S 744 mmHg 94%
02:00 +15°C° 0 mm 2 m/S 745 mmHg 95%
03:00 +15°C° 0 mm 2 m/S 745 mmHg 95%
04:00 +15°C° 0 mm 2 m/S 745 mmHg 96%
05:00 +15°C° 0 mm 2 m/S 745 mmHg 96%
06:00 +17°C° 0 mm 2 m/S 745 mmHg 90%
07:00 +19°C° 0 mm 3 m/S 745 mmHg 84%
08:00 +21°C° 0 mm 3 m/S 746 mmHg 78%
09:00 +22°C° 0 mm 3 m/S 746 mmHg 72%
10:00 +25°C° 0 mm 4 m/S 746 mmHg 66%
11:00 +26°C° 0 mm 4 m/S 746 mmHg 61%
12:00 +27°C° 0 mm 4 m/S 746 mmHg 58%
13:00 +27°C° 0 mm 4 m/S 746 mmHg 56%
14:00 +28°C° 0 mm 4 m/S 746 mmHg 54%
15:00 +28°C° 0 mm 4 m/S 746 mmHg 56%
16:00 +27°C° 0 mm 4 m/S 746 mmHg 59%
17:00 +27°C° 0 mm 3 m/S 746 mmHg 62%
18:00 +26°C° 0 mm 3 m/S 746 mmHg 68%
19:00 +24°C° 0 mm 3 m/S 746 mmHg 75%
20:00 +21°C° 0 mm 3 m/S 746 mmHg 81%
21:00 +20°C° 0 mm 3 m/S 747 mmHg 84%
22:00 +19°C° 0 mm 3 m/S 747 mmHg 87%
23:00 +18°C° 0 mm 2 m/S 747 mmHg 90%

18 Juni, Freitag

Zeit Temperatur Niederschläge Wind Luftdruck Luftfeuchtigkeit
00:00 +17°C° 0 mm 2 m/S 747 mmHg 91%
01:00 +17°C° 0 mm 3 m/S 747 mmHg 92%
02:00 +16°C° 0 mm 3 m/S 747 mmHg 94%
03:00 +16°C° 0 mm 3 m/S 747 mmHg 94%
04:00 +15°C° 0 mm 2 m/S 747 mmHg 94%
05:00 +15°C° 0 mm 2 m/S 747 mmHg 95%
06:00 +17°C° 0 mm 3 m/S 747 mmHg 88%
07:00 +18°C° 0 mm 3 m/S 748 mmHg 81%
08:00 +20°C° 0 mm 4 m/S 748 mmHg 74%
09:00 +21°C° 0 mm 4 m/S 748 mmHg 71%
10:00 +23°C° 0 mm 4 m/S 748 mmHg 67%
11:00 +25°C° 0 mm 4 m/S 748 mmHg 64%
12:00 +26°C° 0 mm 4 m/S 748 mmHg 62%
13:00 +26°C° 0 mm 5 m/S 747 mmHg 60%
14:00 +27°C° 0 mm 5 m/S 747 mmHg 58%
15:00 +27°C° 0 mm 5 m/S 747 mmHg 60%
16:00 +26°C° 0 mm 4 m/S 747 mmHg 62%
17:00 +26°C° 0 mm 4 m/S 747 mmHg 64%
18:00 +23°C° 0 mm 4 m/S 747 mmHg 71%
19:00 +22°C° 0 mm 3 m/S 747 mmHg 78%
20:00 +20°C° 0 mm 3 m/S 747 mmHg 85%
21:00 +19°C° 0 mm 3 m/S 747 mmHg 88%
22:00 +18°C° 0 mm 3 m/S 747 mmHg 92%
23:00 +18°C° 0 mm 3 m/S 747 mmHg 95%

19 Juni, Samstag

Zeit Temperatur Niederschläge Wind Luftdruck Luftfeuchtigkeit
00:00 +17°C° 0 mm 3 m/S 747 mmHg 95%
01:00 +17°C° 0 mm 3 m/S 747 mmHg 96%
02:00 +16°C° 0 mm 3 m/S 747 mmHg 96%
03:00 +16°C° 0 mm 3 m/S 747 mmHg 95%
04:00 +16°C° 0 mm 2 m/S 748 mmHg 95%
05:00 +16°C° 0 mm 2 m/S 748 mmHg 95%
06:00 +18°C° 0 mm 3 m/S 748 mmHg 89%
07:00 +19°C° 0 mm 3 m/S 748 mmHg 83%
08:00 +21°C° 0 mm 4 m/S 748 mmHg 77%
09:00 +22°C° 0 mm 4 m/S 748 mmHg 74%
10:00 +25°C° 0 mm 4 m/S 748 mmHg 70%
11:00 +26°C° 0 mm 5 m/S 748 mmHg 67%
12:00 +26°C° 0 mm 4 m/S 748 mmHg 63%
13:00 +27°C° 0 mm 4 m/S 747 mmHg 60%
14:00 +27°C° 0 mm 4 m/S 747 mmHg 56%
15:00 +27°C° 0 mm 4 m/S 747 mmHg 60%
16:00 +26°C° 0 mm 3 m/S 747 mmHg 64%
17:00 +26°C° 0 mm 3 m/S 747 mmHg 67%
18:00 +24°C° 0 mm 3 m/S 747 mmHg 71%
19:00 +22°C° 0 mm 3 m/S 747 mmHg 74%
20:00 +21°C° 0 mm 2 m/S 747 mmHg 77%
21:00 +20°C° 0 mm 2 m/S 747 mmHg 79%
22:00 +20°C° 0 mm 2 m/S 747 mmHg 81%
23:00 +19°C° 0 mm 2 m/S 747 mmHg 84%

20 Juni, Sonntag

Zeit Temperatur Niederschläge Wind Luftdruck Luftfeuchtigkeit
00:00 +18°C° 0 mm 2 m/S 747 mmHg 83%
01:00 +18°C° 0 mm 2 m/S 747 mmHg 83%
02:00 +18°C° 0 mm 2 m/S 747 mmHg 83%
03:00 +18°C° 0 mm 2 m/S 747 mmHg 83%
04:00 +18°C° 0 mm 2 m/S 747 mmHg 84%
05:00 +18°C° 0 mm 2 m/S 747 mmHg 84%
06:00 +19°C° 0 mm 2 m/S 747 mmHg 82%
07:00 +19°C° 0 mm 2 m/S 747 mmHg 80%
08:00 +20°C° 0 mm 2 m/S 747 mmHg 78%
09:00 +22°C° 0 mm 3 m/S 747 mmHg 71%
10:00 +24°C° 0 mm 3 m/S 747 mmHg 64%
11:00 +26°C° 0 mm 3 m/S 747 mmHg 57%
12:00 +26°C° 0 mm 3 m/S 747 mmHg 57%
13:00 +26°C° 0 mm 3 m/S 746 mmHg 56%
14:00 +26°C° 0 mm 3 m/S 746 mmHg 55%
15:00 +26°C° 0 mm 3 m/S 746 mmHg 59%
16:00 +25°C° 0 mm 2 m/S 746 mmHg 63%
17:00 +25°C° 0 mm 2 m/S 746 mmHg 67%
18:00 +24°C° 0 mm 2 m/S 746 mmHg 70%
19:00 +23°C° 0 mm 2 m/S 746 mmHg 73%
20:00 +21°C° 0 mm 2 m/S 746 mmHg 75%
21:00 +20°C° 0 mm 2 m/S 746 mmHg 76%
22:00 +19°C° 0 mm 2 m/S 746 mmHg 77%
23:00 +19°C° 0 mm 2 m/S 746 mmHg 77%
Mehr zeigen

Wir brauchen deine Erlaubnis

Meteoprog und unser Service Anbieter werden persönliche Daten aufbewahren, so wie Cookies, Geräte Bezeichnung oder ähnliche Technologien von deinem Gerät und Prozess, so wie Persönliche Daten Inhalte und Werbungen, genauso wie social Media und den Verkehr zu analysieren.

  • Aufbewahrung und/oder Zugang zu deiner Geräte Informationen.

    Cookies, Geräte Bezeichnung oder andere Informationen, können aufbewahrt oder Zugang zu deinem Gerät erhalten, für den Grund, der oben angegeben wird.

  • Personalisierte Werbung und Inhalte, Messungen, Einblick in das Publikum und Produkt Entwicklung.

    Werbungen und Inhalte können personalisiert werden, basierend auf ein Profil. Mehr Daten können besser personalisierte Werbungen und Inhalte hinzufügen. Werbung und Inhalte können gezeigt und gemessen werden. Einblicke über das Publikum, welche die Werbung gesehen haben und den Inhalt, können abgeleitet werden. So wie Daten können genutzt werden, um es zu verbessern oder die Benutzer Erfahrung zu verbessern das System und die Software.

Wenn du “Ich stimme zu” klickst, erlaubst du uns, die Cookies zu benutzen die Geräte Bezeichnung, den Web oder ähnliche Technologien zu benutzen. Deine Settings, können in deinem Gerät bei deinem Browser geändert werden.

Für den bestimmten Zweck, berechtigten Interessen beruhen darauf, mehr als auf den Inhalt. Du kannst mehr darüber in unseren Privaten und Cookie Politik lesen.